Flag for U.S.A. Weather past 2 weeks in Leawood, Kansas, U.S.A.

35 °F

Low clouds.

Feels Like: 29 °F
Forecast: 32 / 40 °F
Wind: 7 mph from East

Location: Johnson County Executive Airport

Current Time: Nov 29, 2015 at 10:52:56 PM

Latest Report: Nov 29, 2015 at 9:53 PM

Visibility: 8 mi

Pressure: 30.15 "Hg

Humidity: 96%

Dew point: 34 °F

Location of LeawoodLocation

Historic Weather in Leawood — Graph


Leawood temperature yesterday

Maximum temperature yesterday: 32 °F (at 12:53 PM)
Minimum temperature yesterday: 30 °F (at 12:53 AM)
Average temperature yesterday: 31 °F

Past Weeks' High & Low Weather Summary

High63 °F (Nov 26, 11:03 AM)100% (Nov 17, 9:53 AM)30.43 "Hg (Nov 17, 9:53 AM)
Low25 °F (Nov 21, 9:53 PM)25% (Nov 19, 3:53 PM)29.34 "Hg (Nov 18, 4:53 AM)
Average44 °F73%30.05 "Hg
* Reported Nov 14 9:53 PM — Nov 29 9:01 PM, Leawood, Weather by CustomWeather, © 2015

Note: Actual official high and low records may vary slightly from our data, if they occured in-between our weather recording intervals... More about our weather records


Leawood weather history for previous 24 hours

Time TempWeatherWind HumidityBarometerVisibility
9:01 PM
Sun, Nov 29
35 °FLow clouds.6 mph96%30.16 "Hg7 mi
7:53 PM34 °FFog.7 mph100%30.19 "Hg3 mi
6:53 PM35 °FLight rain. Fog.5 mph96%30.20 "Hg4 mi
5:53 PM35 °FLight rain. Fog.5 mph96%30.19 "Hg2 mi
4:53 PM35 °FRain. Fog.7 mph96%30.18 "Hg2 mi
3:53 PM35 °FLight rain. Fog.8 mph96%30.18 "Hg2 mi
2:53 PM35 °FLight rain. Fog.6 mph96%30.20 "Hg6 mi
1:53 PM35 °FLight rain. Fog.5 mph96%30.22 "Hg5 mi
12:53 PM34 °FLight rain. Fog.8 mph97%30.22 "Hg3 mi
11:53 AM34 °FLight rain. Fog.9 mph97%30.24 "Hg3 mi
10:53 AM33 °FRain. Fog.7 mph96%30.28 "Hg2 mi
9:53 AM33 °FLight rain. Fog.13 mph96%30.26 "Hg6 mi
8:53 AM33 °FLight rain. Fog.8 mph92%30.30 "Hg3 mi
8:00 AM32 °FLight snow. Ice fog.8 mph96%30.26 "Hg2 mi
6:53 AM32 °FLight snow. Low clouds.9 mph96%30.29 "Hg7 mi
5:53 AM32 °FLow clouds.8 mph96%30.31 "Hg7 mi
4:53 AM32 °FIce fog.10 mph96%30.29 "Hg6 mi
3:53 AM32 °FIce fog.9 mph96%30.30 "Hg6 mi
2:53 AM32 °FLow clouds.10 mph96%30.30 "Hg7 mi
1:53 AM32 °FLow clouds.9 mph96%30.31 "Hg7 mi
12:53 AM32 °FLow clouds.8 mph96%30.33 "Hg7 mi
11:53 PM
Sat, Nov 28
32 °FLow clouds.12 mph96%30.34 "Hg7 mi
10:53 PM32 °FLow clouds.8 mph96%30.35 "Hg7 mi
Weather by CustomWeather, © 2015

See weather overviewHow to use our weather pages